User: anonymous   Login
Location: Unspecified
(0.0000°N, 0.0000°E)
Time: 10:01:49
(UTC+00:00)
Language:

STARLINK-30793 - Orbit

View from above orbital plane
View from above orbital plane
View from above satellite
View from above satellite

Ground track
Ground track

The orbit is defined by the following mean orbital elements,

1 58185U          26145.50922637 +.00000000 +00000-0 +21179-3 0 00005
2 58185  43.0058  69.5583 0001171 265.8180  94.2538 15.27591344    07
Epoch (UTC): 25 May 2026 12:13:17
Eccentricity: 0.0001171
inclination: 43.0058°
perigee height: 482 km
apogee height: 484 km
right ascension of ascending node: 69.5583°
argument of perigee: 265.8180°
revolutions per day: 15.27591344
mean anomaly at epoch: 94.2538°

The dashed part of the orbit path shows where the satellite is in the earth's shadow,  

DLR